Wind_Speed
12 15 22 25 21 19 21 25 29 30 31 32 29 28 25 23 23 23 22 21 19 16 15 15 16 14 12 14 15 17 20 24 24 24 25 23 22 21 21 18 17 21 26
10 17 21 23 22 21 21 19 20 23 24 25 28 24 18 17 20 22 22 20 19 16 16 15 15 16 14 13 13 15 18 19 25 30 30 27 26 24 23 23 22 21 22
13 15 18 16 12 13 14 15 21 21 21 22 25 23 20 18 18 20 22 22 20 18 18 18 17 17 17 18 17 15 16 20 23 25 28 28 29 29 28 26 25 25 24
19 20 15 9 9 11 13 16 22 23 22 22 24 23 23 21 19 20 24 24 21 20 21 23 22 20 19 18 20 21 19 20 22 23 25 26 29 31 30 30 30 29 28
14 16 14 12 12 14 17 20 21 19 17 17 20 18 19 19 20 21 27 27 25 22 24 26 26 24 21 21 21 21 21 21 23 24 25 24 24 27 32 32 32 32 33
14 14 15 16 17 19 21 20 17 15 13 15 15 14 16 20 21 23 27 28 28 27 27 27 29 28 23 22 24 24 24 24 25 26 26 27 27 28 32 35 35 32 32
10 12 13 15 19 21 17 13 13 14 14 15 16 14 15 16 16 19 23 25 23 27 27 27 28 30 28 26 25 26 25 26 26 25 24 25 26 28 31 31 35 37 37
12 13 16 19 20 17 15 15 15 15 16 15 15 15 15 15 14 16 18 18 18 19 23 25 27 28 29 28 27 26 26 27 27 26 24 24 25 24 25 30 32 36 39
18 19 19 20 19 17 16 17 17 15 14 13 14 15 15 16 17 18 17 19 20 19 21 23 26 27 28 28 28 28 27 27 28 28 28 27 27 28 28 28 32 37 37
16 16 17 19 20 19 19 19 18 15 13 13 13 14 15 16 17 18 19 20 22 21 22 25 25 25 25 24 25 26 25 24 25 24 26 27 27 27 28 27 26 32 39
18 18 19 21 21 21 21 20 19 17 15 14 13 14 16 16 18 19 20 22 24 25 26 28 29 27 27 25 23 22 22 21 21 21 22 23 23 23 22 22 23 30 36
18 19 20 21 21 21 20 19 16 14 14 15 16 17 17 17 18 19 21 23 24 26 29 32 34 34 31 28 25 22 20 18 17 18 19 19 20 21 21 23 22 20 28
19 19 20 21 21 20 19 17 15 13 13 14 14 15 16 17 18 19 21 23 23 27 30 32 34 37 37 35 31 26 22 20 17 17 18 20 21 23 25 26 30 26 24
20 20 20 21 21 19 16 15 14 13 13 13 13 14 14 14 16 18 20 23 22 24 27 33 37 35 35 35 33 30 27 23 19 18 20 21 23 24 25 26 29 29 28
19 19 18 18 18 16 15 15 15 15 13 11 11 12 12 13 14 15 18 15 15 18 16 12 11 19 23 25 27 26 24 22 20 20 22 24 25 26 26 26 27 27 27
16 16 17 18 19 18 16 15 14 16 15 14 14 14 13 13 14 17 19 16 14 11 8 7 8 11 11 15 20 21 20 18 17 18 20 21 22 23 23 23 21 21 23
16 17 18 20 21 20 17 16 16 16 16 16 17 17 18 17 16 18 19 17 9 6 8 9 11 6 5 10 14 17 16 13 11 12 14 16 16 17 17 18 21 24 27
16 17 17 19 21 22 21 19 18 17 19 20 20 20 21 20 17 15 14 10 6 8 10 10 12 10 11 12 11 11 10 9 7 8 11 13 14 16 18 20 23 25 28
15 15 16 17 19 21 21 21 20 21 21 21 23 25 28 29 24 13 9 10 11 10 10 12 13 15 14 13 12 9 6 2 4 7 10 12 15 18 21 24 26 28 30
15 16 16 17 17 17 18 19 20 21 23 24 26 29 31 33 29 24 25 25 22 19 18 18 19 18 17 15 12 8 5 3 4 6 9 12 15 19 22 25 27 29 31
14 15 16 17 17 17 17 18 19 21 23 25 27 28 31 33 32 28 29 29 27 25 22 20 19 18 17 15 13 10 9 8 8 10 13 15 18 20 22 23 23 24 25
14 15 15 16 16 17 17 17 19 21 23 25 27 28 29 30 32 31 30 28 25 24 22 21 20 19 18 17 16 14 13 13 14 16 18 20 21 21 22 22 22 23 24
12 13 15 15 15 16 17 17 17 18 20 23 25 26 26 26 26 26 26 24 23 21 20 19 18 17 17 16 16 16 17 17 18 18 19 21 22 23 24 25 25 24 24
11 12 13 14 15 16 17 17 17 16 16 19 21 22 23 23 23 24 22 20 19 18 17 17 16 16 15 15 16 17 17 18 19 18 18 19 20 21 23 25 27 27 28
10 10 10 12 14 16 17 17 17 16 15 16 17 18 19 20 20 21 21 21 20 19 17 16 15 15 15 15 16 17 17 18 20 20 21 22 22 22 23 25 27 29 31
8 8 8 10 13 15 15 15 15 16 15 15 15 15 15 16 17 18 19 19 19 19 18 17 16 16 16 16 16 16 16 17 18 20 22 23 24 24 25 26 27 29 30
Wind_Direction
192 230 234 243 259 273 281 283 282 280 280 286 286 280 279 281 282 282 277 278 274 262 257 257 254 252 265 270 262 235 223 216 214 229 236 237 239 238 237 237 235 231 233
223 240 252 259 269 284 289 291 303 302 292 291 282 279 284 285 278 274 273 270 264 261 257 254 245 242 249 254 253 229 223 217 219 232 239 239 239 241 242 239 238 236 233
288 290 291 285 286 298 296 314 325 315 296 298 296 280 279 282 275 266 267 265 259 253 253 254 252 249 247 244 235 230 231 229 228 233 237 242 244 244 243 243 240 238 237
321 314 314 355 349 331 328 334 322 306 297 292 296 280 269 266 265 264 264 264 262 252 249 253 255 254 250 246 237 229 234 236 233 231 239 243 247 245 241 239 239 239 240
329 336 351 352 342 336 337 327 313 298 297 303 305 288 271 256 256 264 267 263 264 256 247 247 250 251 249 246 241 235 234 234 236 237 243 249 251 247 240 237 238 241 241
339 348 350 346 341 335 329 320 310 302 309 312 311 300 282 272 264 263 265 264 261 258 253 247 246 249 249 247 242 238 239 243 243 244 247 250 247 251 249 247 244 242 241
350 351 342 340 335 330 332 327 316 314 314 311 307 297 286 284 274 265 263 264 263 259 256 251 246 246 247 246 245 244 243 244 248 248 251 253 257 257 253 255 252 245 245
344 349 345 338 331 333 340 337 324 310 301 299 298 291 284 277 270 267 268 271 271 270 261 254 249 246 246 247 249 249 249 250 251 253 253 255 259 261 251 254 253 248 249
351 344 337 328 324 320 321 325 319 303 287 288 292 289 284 281 282 287 284 279 278 278 268 256 251 247 248 250 251 252 254 255 256 256 257 258 256 257 257 265 261 247 247
343 338 334 330 328 324 318 316 312 301 287 285 288 289 288 286 286 286 282 277 273 269 263 257 250 248 248 250 253 254 257 258 260 260 258 258 258 261 264 265 262 244 235
345 340 336 332 329 324 319 316 311 302 293 284 281 285 284 282 284 284 282 278 274 268 260 256 255 253 249 245 245 250 253 255 259 263 264 263 260 259 257 251 252 253 243
352 348 342 337 332 328 326 324 317 304 290 283 282 281 281 284 290 293 291 288 284 277 268 260 253 249 244 240 238 241 244 246 249 253 257 257 255 249 245 243 250 251 244
358 352 347 343 341 339 337 333 324 312 298 290 288 288 293 299 304 303 297 294 290 288 280 269 258 250 240 237 237 239 242 243 247 253 256 254 251 248 245 244 247 254 257
358 354 354 352 349 350 354 355 349 334 317 308 306 307 310 310 315 321 318 307 297 299 284 271 260 248 237 231 232 235 240 244 249 249 251 253 253 253 253 253 256 261 260
0 358 359 359 0 5 9 11 5 358 352 342 331 323 320 321 328 331 332 325 329 337 329 307 240 219 216 220 227 230 234 241 251 256 255 253 251 251 255 260 263 265 267
6 14 16 13 16 19 18 16 14 14 16 12 5 358 352 348 348 347 343 338 338 352 13 55 120 153 188 207 212 215 222 237 250 253 253 255 255 257 262 266 268 270 274
19 22 21 20 23 25 24 23 21 17 13 10 9 7 360 348 337 333 335 343 356 40 66 88 103 105 145 167 182 196 210 223 235 253 260 260 260 265 268 272 275 278 280
24 24 24 26 28 27 26 25 21 18 14 12 14 13 5 354 343 335 336 355 51 91 77 83 106 118 122 135 157 177 192 208 230 257 274 275 278 282 284 285 285 285 284
22 24 23 25 26 27 27 27 26 27 27 26 25 22 14 11 13 27 60 76 81 89 91 87 96 94 101 109 118 130 142 184 262 281 292 299 299 297 294 293 292 292 291
25 28 26 24 23 26 28 29 31 33 34 32 31 28 26 30 42 66 81 83 86 90 94 97 88 82 88 95 97 97 87 49 2 339 325 318 314 310 308 305 302 300 299
26 30 30 28 27 28 31 35 36 37 37 38 39 38 38 42 53 65 75 78 81 84 87 91 90 86 85 86 85 83 78 62 37 12 359 350 342 334 329 325 320 317 314
20 26 29 30 31 32 33 35 35 37 38 40 43 46 48 50 54 60 69 77 81 84 85 83 80 76 75 73 69 64 56 43 29 18 10 2 356 354 353 346 336 330 326
19 25 30 30 28 28 29 29 31 37 41 39 40 44 47 53 58 63 67 73 76 79 80 79 75 71 67 60 53 46 40 34 26 18 13 9 5 1 358 355 349 343 337
16 24 31 31 30 31 30 30 29 36 43 44 41 41 44 49 53 57 61 66 69 70 68 66 63 59 54 48 41 35 30 25 19 16 11 6 4 2 2 1 358 353 347
11 16 22 24 24 27 28 30 30 31 34 37 38 39 40 44 48 51 53 53 54 54 53 52 50 46 41 36 32 29 27 24 22 21 18 14 10 6 4 3 3 2 2
2 5 6 17 23 22 20 22 25 26 29 32 36 36 37 38 41 45 46 46 46 46 44 42 40 35 30 26 22 20 19 18 19 19 18 18 18 17 15 13 11 9 8
Height
5789 5791 5792 5796 5798 5797 5797 5798 5799 5800 5802 5799 5795 5793 5789 5787 5789 5791 5790 5791 5789 5789 5790 5791 5791 5792 5792 5793 5795 5796 5799 5803 5806 5811 5813 5815 5818 5821 5823 5825 5827 5829 5832
5786 5787 5791 5793 5792 5792 5792 5795 5794 5793 5792 5789 5787 5783 5779 5778 5781 5784 5784 5784 5785 5784 5786 5786 5787 5788 5788 5788 5790 5793 5796 5798 5802 5805 5807 5810 5812 5816 5818 5820 5822 5824 5826
5783 5785 5788 5789 5787 5787 5789 5789 5787 5785 5783 5781 5780 5774 5772 5773 5775 5777 5779 5780 5781 5780 5782 5783 5784 5784 5784 5784 5786 5790 5792 5794 5797 5799 5800 5803 5806 5809 5812 5815 5817 5819 5821
5781 5783 5785 5784 5784 5784 5783 5781 5782 5780 5776 5773 5770 5767 5765 5767 5769 5771 5774 5776 5776 5776 5777 5778 5780 5780 5780 5781 5782 5784 5786 5788 5790 5793 5795 5797 5799 5802 5805 5808 5810 5813 5816
5779 5780 5780 5781 5782 5780 5777 5775 5775 5774 5769 5765 5761 5759 5759 5759 5762 5765 5768 5769 5771 5771 5771 5772 5773 5774 5774 5776 5778 5780 5781 5783 5785 5787 5790 5791 5792 5795 5798 5799 5802 5805 5808
5779 5778 5777 5777 5776 5776 5775 5774 5770 5768 5763 5759 5757 5757 5756 5755 5756 5758 5761 5762 5764 5764 5765 5765 5766 5768 5768 5770 5772 5774 5776 5778 5780 5781 5783 5785 5786 5788 5790 5792 5795 5799 5801
5780 5778 5777 5775 5774 5773 5771 5769 5766 5763 5760 5759 5757 5755 5753 5752 5751 5751 5753 5754 5755 5756 5757 5758 5759 5761 5762 5763 5766 5768 5769 5772 5775 5776 5777 5777 5779 5781 5782 5785 5786 5790 5793
5778 5777 5775 5773 5771 5768 5766 5764 5762 5760 5758 5756 5754 5752 5751 5749 5747 5747 5747 5746 5747 5747 5748 5749 5751 5752 5754 5756 5759 5761 5763 5765 5767 5769 5770 5771 5772 5773 5775 5776 5777 5780 5784
5773 5773 5773 5771 5769 5767 5763 5760 5758 5755 5753 5751 5749 5747 5746 5745 5743 5742 5741 5742 5740 5740 5740 5742 5744 5745 5747 5749 5752 5754 5756 5759 5760 5761 5762 5763 5764 5766 5767 5768 5768 5770 5773
5774 5773 5770 5768 5764 5760 5757 5754 5752 5750 5748 5746 5744 5742 5741 5739 5738 5736 5736 5736 5735 5735 5734 5735 5737 5739 5740 5743 5745 5747 5748 5750 5752 5754 5755 5757 5758 5759 5759 5760 5760 5762 5765
5769 5766 5764 5762 5759 5756 5753 5749 5747 5745 5743 5741 5739 5737 5736 5734 5732 5731 5729 5728 5728 5726 5725 5726 5727 5729 5732 5736 5738 5740 5741 5743 5745 5747 5748 5750 5751 5752 5753 5754 5754 5755 5758
5766 5764 5761 5758 5755 5752 5748 5744 5742 5740 5739 5737 5734 5732 5730 5728 5726 5724 5722 5720 5717 5716 5714 5714 5715 5719 5723 5726 5730 5734 5736 5738 5739 5740 5742 5744 5746 5746 5747 5747 5748 5748 5750
5765 5762 5760 5756 5753 5749 5745 5741 5738 5735 5733 5731 5728 5726 5725 5723 5721 5718 5716 5712 5708 5705 5702 5700 5700 5704 5710 5716 5722 5727 5731 5734 5735 5736 5737 5738 5740 5741 5741 5741 5742 5742 5743
5763 5761 5759 5756 5752 5747 5743 5740 5736 5733 5729 5726 5724 5722 5720 5718 5715 5713 5709 5704 5699 5694 5688 5684 5684 5688 5696 5704 5712 5719 5724 5727 5730 5731 5732 5733 5734 5734 5734 5734 5734 5734 5735
5764 5761 5758 5755 5751 5747 5744 5740 5736 5732 5728 5725 5722 5719 5717 5714 5711 5707 5703 5697 5693 5687 5680 5674 5674 5680 5688 5697 5705 5712 5717 5721 5724 5725 5726 5727 5728 5728 5728 5728 5727 5726 5726
5765 5762 5759 5756 5752 5748 5745 5741 5737 5733 5729 5726 5723 5719 5715 5712 5708 5704 5699 5694 5691 5686 5681 5679 5679 5683 5688 5694 5701 5707 5713 5717 5718 5719 5721 5722 5722 5722 5722 5722 5721 5721 5720
5767 5764 5761 5757 5753 5750 5746 5742 5739 5735 5730 5727 5723 5718 5714 5710 5705 5701 5696 5691 5689 5687 5684 5684 5685 5688 5691 5694 5699 5705 5710 5713 5715 5716 5717 5718 5718 5718 5718 5718 5717 5716 5714
5768 5766 5763 5760 5756 5752 5748 5745 5741 5736 5732 5728 5724 5719 5714 5707 5702 5697 5693 5691 5689 5689 5688 5688 5689 5691 5693 5697 5701 5705 5709 5713 5714 5716 5716 5716 5715 5714 5714 5713 5711 5710 5708
5770 5768 5765 5762 5759 5755 5751 5748 5744 5740 5735 5732 5727 5722 5715 5706 5698 5692 5691 5691 5690 5691 5692 5693 5695 5697 5699 5701 5704 5708 5711 5713 5714 5715 5715 5714 5712 5711 5709 5707 5705 5702 5699
5772 5770 5767 5764 5761 5758 5754 5751 5747 5744 5740 5735 5731 5726 5719 5711 5703 5698 5696 5696 5696 5697 5698 5700 5702 5703 5704 5706 5709 5711 5713 5714 5714 5714 5713 5711 5709 5707 5704 5700 5697 5693 5690
5774 5772 5769 5766 5763 5760 5757 5754 5751 5748 5744 5740 5736 5732 5726 5719 5714 5709 5706 5705 5706 5707 5708 5708 5709 5710 5711 5712 5713 5714 5715 5715 5715 5714 5712 5709 5706 5702 5698 5695 5691 5686 5682
5777 5774 5772 5769 5767 5764 5761 5758 5755 5751 5748 5744 5741 5737 5734 5729 5724 5720 5717 5716 5716 5716 5716 5716 5716 5716 5716 5717 5717 5717 5716 5716 5714 5712 5710 5707 5703 5699 5695 5691 5687 5682 5677
5780 5777 5774 5772 5769 5766 5763 5760 5757 5755 5752 5749 5745 5742 5740 5737 5734 5730 5728 5725 5724 5723 5722 5722 5722 5722 5721 5720 5719 5718 5718 5717 5715 5712 5709 5706 5702 5697 5693 5689 5684 5678 5672
5782 5779 5777 5774 5772 5768 5765 5763 5761 5758 5756 5753 5750 5747 5745 5742 5739 5736 5734 5732 5730 5729 5727 5727 5726 5725 5724 5722 5721 5720 5718 5717 5714 5712 5709 5705 5701 5697 5692 5687 5681 5674 5668
5783 5782 5779 5776 5774 5771 5769 5766 5764 5762 5759 5756 5754 5751 5749 5747 5744 5741 5739 5736 5734 5732 5731 5730 5729 5727 5726 5724 5722 5720 5718 5716 5714 5711 5708 5704 5700 5696 5691 5686 5680 5673 5666
5784 5783 5781 5779 5776 5774 5771 5769 5767 5765 5762 5759 5756 5754 5752 5750 5748 5746 5743 5741 5739 5737 5735 5733 5731 5729 5727 5726 5723 5721 5718 5716 5714 5711 5707 5703 5699 5695 5690 5685 5679 5673 5666